| time (UTC) | temp F | wind direction | speed MPH | gust MPH | rain 1hr in | rain 24hr in | rain mn in | humidity % | barometer mb |
| 20260507145934 | 0 | 25 | 2.0 | 2.0 | 0.00 | 0.05 | 0.05 | 1006.3 | |
| 20260507145429 | 0 | 53 | 0.0 | 0.0 | 0.00 | 0.05 | 0.05 | 1006.2 | |
| 20260507144927 | 0 | 36 | 0.0 | 0.0 | 0.00 | 0.05 | 0.05 | 1006.0 | |
| 20260507144424 | 0 | 13 | 0.0 | 0.0 | 0.00 | 0.05 | 0.05 | 1006.4 | |
| 20260507143921 | 0 | 45 | 0.0 | 0.0 | 0.00 | 0.05 | 0.05 | 1006.3 | |
| 20260507143418 | 0 | 80 | 0.0 | 0.0 | 0.00 | 0.05 | 0.05 | 1006.4 | |
| 20260507142914 | 0 | 141 | 2.0 | 3.0 | 0.00 | 0.05 | 0.05 | 1006.4 | |
| 20260507142410 | 0 | 83 | 0.0 | 0.0 | 0.00 | 0.05 | 0.05 | 1006.5 | |
| 20260507141908 | 0 | 11 | 1.0 | 1.0 | 0.00 | 0.05 | 0.05 | 1006.5 | |
| 20260507141404 | 0 | 28 | 2.0 | 2.0 | 0.00 | 0.05 | 0.05 | 1006.3 | |
| 20260507140900 | 0 | 41 | 0.0 | 0.0 | 0.00 | 0.05 | 0.05 | 1006.4 | |
| 20260507140357 | 0 | 104 | 0.0 | 0.0 | 0.00 | 0.05 | 0.05 | 1006.3 | |
| 20260507135855 | 0 | 26 | 2.0 | 2.0 | 0.00 | 0.05 | 0.05 | 1006.4 | |
| 20260507135351 | 0 | 51 | 0.0 | 0.0 | 0.00 | 0.05 | 0.05 | 1006.3 | |
| 20260507134849 | 0 | 337 | 3.0 | 3.0 | 0.00 | 0.05 | 0.05 | 1006.5 | |
| 20260507134345 | 0 | 116 | 0.0 | 1.0 | 0.00 | 0.05 | 0.05 | 1006.3 | |
| 20260507133841 | 0 | 53 | 0.0 | 0.0 | 0.00 | 0.05 | 0.05 | 1006.4 | |
| 20260507133337 | 0 | 54 | 0.0 | 0.0 | 0.00 | 0.05 | 0.05 | 1006.5 | |
| 20260507132836 | 0 | 55 | 0.0 | 1.0 | 0.00 | 0.05 | 0.05 | 1006.3 | |
| 20260507132331 | 0 | 102 | 0.0 | 0.0 | 0.00 | 0.05 | 0.05 | 1006.5 | |
| 20260507131829 | 0 | 101 | 0.0 | 0.0 | 0.00 | 0.05 | 0.05 | 1006.5 | |
| 20260507131325 | 0 | 38 | 0.0 | 0.0 | 0.00 | 0.05 | 0.05 | 1006.5 | |
| 20260507130822 | 0 | 49 | 1.0 | 1.0 | 0.00 | 0.05 | 0.05 | 1006.8 | |
| 20260507130319 | 0 | 347 | 1.0 | 2.0 | 0.00 | 0.05 | 0.05 | 1006.8 | |
| 20260507125818 | 0 | 56 | 0.0 | 0.0 | 0.00 | 0.05 | 0.05 | 1006.5 | |
| 20260507125315 | 0 | 84 | 1.0 | 1.0 | 0.00 | 0.05 | 0.05 | 1006.5 | |
| 20260507124813 | 0 | 31 | 0.0 | 1.0 | 0.00 | 0.05 | 0.05 | 1006.7 | |
| 20260507124309 | 0 | 39 | 1.0 | 1.0 | 0.00 | 0.05 | 0.05 | 1006.7 | |
| 20260507123808 | 0 | 47 | 0.0 | 1.0 | 0.00 | 0.05 | 0.05 | 1006.7 | |
| 20260507123305 | 0 | 77 | 0.0 | 0.0 | 0.00 | 0.05 | 0.05 | 1006.7 | |
| 20260507122800 | 0 | 48 | 0.0 | 0.0 | 0.00 | 0.05 | 0.05 | 1006.8 | |
| 20260507122256 | 0 | 51 | 0.0 | 0.0 | 0.00 | 0.05 | 0.05 | 1006.8 | |
| 20260507121752 | 0 | 52 | 0.0 | 0.0 | 0.00 | 0.05 | 0.05 | 1006.9 | |
| 20260507121248 | 0 | 49 | 0.0 | 0.0 | 0.00 | 0.05 | 0.05 | 1006.7 | |
| 20260507120744 | 0 | 53 | 0.0 | 0.0 | 0.00 | 0.05 | 0.05 | 1007.0 | |
| 20260507120241 | 0 | 52 | 0.0 | 0.0 | 0.00 | 0.05 | 0.05 | 1006.6 | |
| 20260507115737 | 0 | 53 | 0.0 | 0.0 | 0.00 | 0.05 | 0.05 | 1006.8 | |
| 20260507115233 | 0 | 53 | 0.0 | 0.0 | 0.00 | 0.05 | 0.05 | 1006.6 | |
| 20260507114729 | 0 | 53 | 0.0 | 0.0 | 0.00 | 0.05 | 0.05 | 1006.8 | |
| 20260507114227 | 0 | 53 | 0.0 | 0.0 | 0.00 | 0.05 | 0.05 | 1006.7 | |
| 20260507113724 | 0 | 53 | 0.0 | 0.0 | 0.00 | 0.05 | 0.05 | 1006.8 | |
| 20260507113220 | 0 | 53 | 0.0 | 0.0 | 0.00 | 0.05 | 0.05 | 1006.6 | |
| 20260507112718 | 0 | 50 | 0.0 | 0.0 | 0.00 | 0.05 | 0.05 | 1006.4 | |
| 20260507112215 | 0 | 56 | 0.0 | 0.0 | 0.00 | 0.05 | 0.05 | 1006.7 | |
| 20260507111712 | 0 | 57 | 0.0 | 0.0 | 0.00 | 0.05 | 0.05 | 1006.6 | |
| 20260507111209 | 0 | 70 | 0.0 | 0.0 | 0.00 | 0.05 | 0.05 | 1006.5 | |
| 20260507110705 | 0 | 358 | 0.0 | 0.0 | 0.00 | 0.05 | 0.05 | 1006.5 | |
| 20260507110202 | 0 | 67 | 0.0 | 0.0 | 0.00 | 0.05 | 0.05 | 1006.3 | |
| 20260507105659 | 0 | 67 | 0.0 | 0.0 | 0.00 | 0.05 | 0.05 | 1006.3 | |
| 20260507105155 | 0 | 67 | 0.0 | 0.0 | 0.00 | 0.05 | 0.05 | 1006.3 | |
| 20260507104652 | 0 | 89 | 0.0 | 0.0 | 0.00 | 0.05 | 0.05 | 1006.5 | |
| 20260507104148 | 0 | 75 | 0.0 | 0.0 | 0.00 | 0.05 | 0.05 | 1006.5 | |
| 20260507103644 | 0 | 75 | 0.0 | 0.0 | 0.00 | 0.05 | 0.05 | 1006.5 | |
| 20260507103141 | 0 | 100 | 0.0 | 0.0 | 0.00 | 0.05 | 0.05 | 1006.7 | |
| 20260507102638 | 0 | 71 | 0.0 | 0.0 | 0.00 | 0.05 | 0.05 | 1006.4 | |
| 20260507102134 | 0 | 71 | 0.0 | 0.0 | 0.00 | 0.05 | 0.05 | 1006.2 | |
| 20260507101630 | 0 | 70 | 0.0 | 0.0 | 0.00 | 0.05 | 0.05 | 1006.2 | |
| 20260507101126 | 0 | 68 | 0.0 | 0.0 | 0.05 | 0.05 | 0.05 | 1005.9 | |
| 20260507100624 | 0 | 57 | 0.0 | 0.0 | 0.05 | 0.05 | 0.05 | 1005.9 | |
| 20260507100122 | 0 | 58 | 0.0 | 0.0 | 0.00 | 0.04 | 0.04 | 1005.6 | |
| 20260507095620 | 0 | 50 | 0.0 | 0.0 | 0.00 | 0.04 | 0.04 | 1005.9 | |
| 20260507095116 | 0 | 51 | 0.0 | 0.0 | 0.00 | 0.04 | 0.04 | 1005.8 | |
| 20260507094612 | 0 | 51 | 0.0 | 0.0 | 0.00 | 0.04 | 0.04 | 1005.8 | |
| 20260507094109 | 0 | 50 | 0.0 | 0.0 | 0.00 | 0.04 | 0.04 | 1005.8 | |
| 20260507093606 | 0 | 50 | 0.0 | 0.0 | 0.00 | 0.04 | 0.04 | 1006.0 | |
| 20260507093105 | 0 | 50 | 0.0 | 0.0 | 0.07 | 0.04 | 0.04 | 1005.6 | |
| 20260507092601 | 0 | 49 | 0.0 | 0.0 | 0.07 | 0.04 | 0.04 | 1005.9 | |
| 20260507092058 | 0 | 57 | 0.0 | 0.0 | 0.00 | 0.03 | 0.03 | 1006.1 | |
| 20260507091555 | 0 | 60 | 0.0 | 0.0 | 0.05 | 0.03 | 0.03 | 1005.8 | |
| 20260507091051 | 0 | 50 | 0.0 | 0.0 | 0.05 | 0.03 | 0.03 | 1005.9 | |
| 20260507090546 | 0 | 46 | 0.0 | 0.0 | 0.00 | 0.02 | 0.02 | 1005.9 | |
| 20260507090044 | 0 | 49 | 0.0 | 0.0 | 0.00 | 0.02 | 0.02 | 1006.2 | |
| 20260507085541 | 0 | 49 | 0.0 | 0.0 | 0.07 | 0.02 | 0.02 | 1006.0 | |
| 20260507085037 | 0 | 49 | 0.0 | 0.0 | 0.07 | 0.02 | 0.02 | 1006.4 | |
| 20260507084534 | 0 | 48 | 0.0 | 0.0 | 0.00 | 0.01 | 0.01 | 1006.0 | |
| 20260507084031 | 0 | 47 | 0.0 | 0.0 | 0.00 | 0.01 | 0.01 | 1006.1 | |
| 20260507083527 | 0 | 51 | 0.0 | 0.0 | 0.00 | 0.01 | 0.01 | 1006.2 | |
| 20260507083025 | 0 | 53 | 0.0 | 0.0 | 0.00 | 0.01 | 0.01 | 1005.9 | |
| 20260507082521 | 0 | 53 | 0.0 | 0.0 | 0.00 | 0.01 | 0.01 | 1006.1 | |
| 20260507082017 | 0 | 53 | 0.0 | 0.0 | 0.00 | 0.01 | 0.01 | 1006.0 | |
| 20260507081513 | 0 | 62 | 0.0 | 0.0 | 0.00 | 0.01 | 0.01 | 1005.9 | |
| 20260507081010 | 0 | 44 | 0.0 | 0.0 | 0.00 | 0.01 | 0.01 | 1005.7 | |
| 20260507080506 | 0 | 48 | 0.0 | 0.0 | 0.00 | 0.01 | 0.01 | 1005.5 | |
| 20260507080002 | 0 | 46 | 0.0 | 0.0 | 0.00 | 0.01 | 0.01 | 1005.9 | |
| 20260507075458 | 0 | 43 | 0.0 | 0.0 | 0.00 | 0.01 | 0.01 | 1005.9 | |
| 20260507074954 | 0 | 44 | 0.0 | 0.0 | 0.00 | 0.01 | 0.01 | 1005.9 | |
| 20260507074451 | 0 | 23 | 0.0 | 1.0 | 0.00 | 0.01 | 0.01 | 1005.9 | |
| 20260507073950 | 0 | 45 | 0.0 | 0.0 | 0.05 | 0.01 | 0.01 | 1006.0 | |
| 20260507073445 | 0 | 45 | 0.0 | 0.0 | 0.05 | 0.01 | 0.01 | 1005.5 | |
| 20260507072942 | 0 | 42 | 0.0 | 0.0 | 0.00 | 0.00 | 0.00 | 1005.6 | |
| 20260507072440 | 0 | 38 | 0.0 | 1.0 | 0.00 | 0.00 | 0.00 | 1005.9 | |
| 20260507071937 | 0 | 36 | 0.0 | 0.0 | 0.00 | 0.00 | 0.00 | 1005.7 | |
| 20260507071434 | 0 | 41 | 0.0 | 0.0 | 0.00 | 0.00 | 0.00 | 1005.1 | |
| 20260507070930 | 0 | 38 | 0.0 | 0.0 | 0.00 | 0.00 | 0.00 | 1005.0 | |
| 20260507070428 | 0 | 44 | 0.0 | 1.0 | 0.00 | 0.00 | 0.00 | 1005.2 | |
| 20260507065924 | 0 | 45 | 0.0 | 0.0 | 0.00 | 0.00 | 0.00 | 1005.3 | |
| 20260507065421 | 0 | 44 | 0.0 | 0.0 | 0.00 | 0.00 | 0.00 | 1005.0 | |
| 20260507064913 | 0 | 40 | 0.0 | 0.0 | 0.00 | 0.00 | 0.00 | 1005.2 | |
| 20260507064411 | 0 | 44 | 0.0 | 0.0 | 0.00 | 0.00 | 0.00 | 1005.2 | |
| 20260507063909 | 0 | 46 | 0.0 | 0.0 | 0.00 | 0.00 | 0.00 | 1005.2 | |
| 20260507063406 | 0 | 44 | 0.0 | 1.0 | 0.00 | 0.00 | 0.00 | 1004.8 | |
| 20260507062902 | 0 | 3 | 1.0 | 2.0 | 0.00 | 0.00 | 0.00 | 1005.2 | |
| 20260507062359 | 0 | 45 | 0.0 | 0.0 | 0.00 | 0.00 | 0.00 | 1005.2 | |
| 20260507061857 | 0 | 25 | 0.0 | 1.0 | 0.00 | 0.00 | 0.00 | 1005.2 | |
| 20260507061355 | 0 | 37 | 0.0 | 0.0 | 0.00 | 0.00 | 0.00 | 1005.4 | |
| 20260507060853 | 0 | 38 | 0.0 | 0.0 | 0.00 | 0.00 | 0.00 | 1005.1 | |
| 20260507060349 | 0 | 32 | 0.0 | 0.0 | 0.00 | 0.00 | 0.00 | 1004.9 | |
| 20260507055846 | 0 | 52 | 0.0 | 0.0 | 0.00 | 0.00 | 0.00 | 1005.1 | |
| 20260507055341 | 0 | 35 | 0.0 | 0.0 | 0.00 | 0.00 | 0.00 | 1005.3 | |
| 20260507054839 | 0 | 36 | 0.0 | 0.0 | 0.00 | 0.00 | 0.00 | 1005.2 | |
| 20260507054334 | 0 | 37 | 0.0 | 0.0 | 0.00 | 0.00 | 0.00 | 1005.3 | |
| 20260507053832 | 0 | 70 | 0.0 | 0.0 | 0.00 | 0.00 | 0.00 | 1005.5 | |
| 20260507053329 | 0 | 49 | 0.0 | 0.0 | 0.00 | 0.00 | 0.00 | 1005.4 | |
| 20260507052828 | 0 | 48 | 0.0 | 0.0 | 0.00 | 0.00 | 0.00 | 1005.4 | |
| 20260507052324 | 0 | 45 | 0.0 | 0.0 | 0.00 | 0.00 | 0.00 | 1005.5 | |
| 20260507051822 | 0 | 48 | 0.0 | 0.0 | 0.00 | 0.00 | 0.00 | 1005.4 | |
| 20260507051320 | 0 | 48 | 0.0 | 0.0 | 0.00 | 0.00 | 0.00 | 1005.4 | |
| 20260507050816 | 0 | 48 | 0.0 | 0.0 | 0.00 | 0.00 | 0.00 | 1005.2 | |
| 20260507050313 | 0 | 35 | 0.0 | 0.0 | 0.00 | 0.00 | 0.00 | 1005.1 | |
| 20260507045810 | 0 | 47 | 0.0 | 0.0 | 0.00 | 0.00 | 0.00 | 1005.2 | |
| 20260507045307 | 0 | 39 | 0.0 | 0.0 | 0.00 | 0.00 | 0.00 | 1005.1 | |
| 20260507044803 | 0 | 42 | 0.0 | 0.0 | 0.00 | 0.00 | 0.00 | 1005.4 | |
| 20260507044300 | 0 | 54 | 0.0 | 0.0 | 0.00 | 0.00 | 0.00 | 1005.4 | |
| 20260507043756 | 0 | 43 | 0.0 | 0.0 | 0.00 | 0.00 | 0.00 | 1005.5 | |
| 20260507043253 | 0 | 51 | 0.0 | 0.0 | 0.00 | 0.00 | 0.00 | 1005.5 | |
| 20260507042749 | 0 | 51 | 0.0 | 0.0 | 0.00 | 0.00 | 0.00 | 1005.2 | |
| 20260507042244 | 0 | 51 | 0.0 | 0.0 | 0.00 | 0.00 | 0.00 | 1005.2 | |
| 20260507041742 | 0 | 54 | 0.0 | 0.0 | 0.00 | 0.00 | 0.00 | 1005.2 | |
| 20260507041238 | 0 | 59 | 0.0 | 0.0 | 0.00 | 0.00 | 0.00 | 1005.4 | |
| 20260507040735 | 0 | 61 | 0.0 | 0.0 | 0.00 | 0.00 | 0.00 | 1005.0 | |
| 20260507040231 | 0 | 62 | 0.0 | 0.0 | 0.00 | 0.00 | 0.00 | 1005.2 | |
| 20260507035727 | 0 | 46 | 0.0 | 0.0 | 0.00 | 0.04 | 0.04 | 1005.3 | |
| 20260507035223 | 0 | 58 | 0.0 | 0.0 | 0.00 | 0.04 | 0.04 | 1005.5 | |
| 20260507034721 | 0 | 46 | 0.0 | 0.0 | 0.00 | 0.04 | 0.04 | 1005.3 | |
| 20260507034217 | 0 | 49 | 0.0 | 0.0 | 0.00 | 0.04 | 0.04 | 1005.3 | |
| 20260507033716 | 0 | 43 | 0.0 | 0.0 | 0.00 | 0.04 | 0.04 | 1005.1 | |
| 20260507033213 | 0 | 56 | 0.0 | 0.0 | 0.00 | 0.04 | 0.04 | 1005.3 | |
| 20260507032710 | 0 | 47 | 0.0 | 0.0 | 0.00 | 0.04 | 0.04 | 1004.9 | |
| 20260507032206 | 0 | 70 | 0.0 | 0.0 | 0.00 | 0.04 | 0.04 | 1004.8 | |
| 20260507031703 | 0 | 49 | 0.0 | 0.0 | 0.00 | 0.04 | 0.04 | 1004.9 | |
| 20260507031159 | 0 | 65 | 0.0 | 0.0 | 0.07 | 0.04 | 0.04 | 1004.6 | |
| 20260507030656 | 0 | 70 | 0.0 | 0.0 | 0.07 | 0.04 | 0.04 | 1004.5 | |
| 20260507030154 | 0 | 71 | 0.0 | 0.0 | 0.00 | 0.03 | 0.03 | 1004.5 | |
| 20260507025651 | 0 | 77 | 0.0 | 0.0 | 0.00 | 0.03 | 0.03 | 1004.5 | |
| 20260507025148 | 0 | 68 | 0.0 | 0.0 | 0.00 | 0.03 | 0.03 | 1004.3 | |
| 20260507024646 | 0 | 156 | 0.0 | 0.0 | 0.00 | 0.03 | 0.03 | 1004.5 | |
| 20260507024143 | 0 | 142 | 2.0 | 2.0 | 0.00 | 0.03 | 0.03 | 1004.2 | |
| 20260507023638 | 0 | 61 | 0.0 | 0.0 | 0.00 | 0.03 | 0.03 | 1004.3 | |
| 20260507023136 | 0 | 80 | 0.0 | 0.0 | 0.00 | 0.03 | 0.03 | 1004.5 | |
| 20260507022633 | 0 | 102 | 0.0 | 0.0 | 0.00 | 0.03 | 0.03 | 1004.6 | |
| 20260507022128 | 0 | 71 | 0.0 | 0.0 | 0.00 | 0.03 | 0.03 | 1004.5 | |
| 20260507021625 | 0 | 47 | 0.0 | 0.0 | 0.00 | 0.03 | 0.03 | 1004.5 | |
| 20260507021120 | 0 | 144 | 1.0 | 2.0 | 0.00 | 0.03 | 0.03 | 1004.4 | |
| 20260507020619 | 0 | 88 | 0.0 | 0.0 | 0.00 | 0.03 | 0.03 | 1004.4 | |
| 20260507020115 | 0 | 117 | 0.0 | 0.0 | 0.00 | 0.03 | 0.03 | 1004.5 | |
| 20260507015614 | 0 | 82 | 0.0 | 0.0 | 0.00 | 0.03 | 0.03 | 1004.5 | |
| 20260507015111 | 0 | 58 | 1.0 | 2.0 | 0.00 | 0.03 | 0.03 | 1004.5 | |
| 20260507014607 | 0 | 85 | 0.0 | 0.0 | 0.00 | 0.03 | 0.03 | 1004.4 | |
| 20260507014103 | 0 | 77 | 0.0 | 0.0 | 0.00 | 0.03 | 0.03 | 1004.4 | |
| 20260507013600 | 0 | 111 | 0.0 | 1.0 | 0.00 | 0.03 | 0.03 | 1004.3 | |
| 20260507013057 | 0 | 153 | 1.0 | 1.0 | 0.00 | 0.03 | 0.03 | 1004.6 | |
| 20260507012554 | 0 | 75 | 0.0 | 0.0 | 0.00 | 0.03 | 0.03 | 1004.5 | |
| 20260507012050 | 0 | 202 | 1.0 | 2.0 | 0.00 | 0.03 | 0.03 | 1004.6 | |
| 20260507011548 | 0 | 148 | 1.0 | 2.0 | 0.00 | 0.03 | 0.03 | 1004.7 | |
| 20260507011044 | 0 | 60 | 0.0 | 0.0 | 0.00 | 0.03 | 0.03 | 1004.7 | |
| 20260507010539 | 0 | 113 | 1.0 | 1.0 | 0.00 | 0.03 | 0.03 | 1004.8 | |
| 20260507010035 | 0 | 227 | 4.0 | 6.0 | 0.00 | 0.03 | 0.03 | 1004.7 | |
| 20260507005533 | 0 | 104 | 0.0 | 0.0 | 0.00 | 0.03 | 0.03 | 1004.8 | |
| 20260507005029 | 0 | 249 | 1.0 | 2.0 | 0.00 | 0.03 | 0.03 | 1004.6 | |
| 20260507004526 | 0 | 86 | 0.0 | 0.0 | 0.00 | 0.03 | 0.03 | 1004.5 | |
| 20260507004023 | 0 | 125 | 3.0 | 3.0 | 0.00 | 0.03 | 0.03 | 1004.9 | |
| 20260507003519 | 0 | 90 | 0.0 | 0.0 | 0.00 | 0.03 | 0.03 | 1004.7 | |
| 20260507003014 | 0 | 154 | 2.0 | 2.0 | 0.00 | 0.03 | 0.03 | 1004.7 | |
| 20260507002511 | 0 | 134 | 1.0 | 2.0 | 0.00 | 0.03 | 0.03 | 1004.8 | |
| 20260507002007 | 0 | 109 | 0.0 | 1.0 | 0.00 | 0.03 | 0.03 | 1004.6 | |
| 20260507001503 | 0 | 127 | 1.0 | 2.0 | 0.00 | 0.03 | 0.03 | 1004.7 | |
| 20260507001001 | 0 | 31 | 2.0 | 2.0 | 0.00 | 0.03 | 0.03 | 1004.6 | |
| 20260507000457 | 0 | 109 | 0.0 | 0.0 | 0.00 | 0.03 | 0.03 | 1004.4 | |
| 20260506235952 | 0 | 227 | 2.0 | 3.0 | 0.00 | 0.03 | 0.03 | 1004.3 | |
| 20260506235450 | 0 | 115 | 1.0 | 1.0 | 0.00 | 0.03 | 0.03 | 1004.4 | |
| 20260506234946 | 0 | 117 | 0.0 | 0.0 | 0.00 | 0.03 | 0.03 | 1004.4 | |
| 20260506234443 | 0 | 169 | 1.0 | 2.0 | 0.00 | 0.03 | 0.03 | 1004.1 | |
| 20260506233941 | 0 | 69 | 0.0 | 0.0 | 0.00 | 0.03 | 0.03 | 1004.3 | |
| 20260506233437 | 0 | 74 | 0.0 | 0.0 | 0.00 | 0.03 | 0.03 | 1004.4 | |
| 20260506232934 | 0 | 79 | 0.0 | 0.0 | 0.05 | 0.03 | 0.03 | 1004.4 | |
| 20260506232430 | 0 | 242 | 0.0 | 0.0 | 0.05 | 0.03 | 0.03 | 1004.5 | |
| 20260506231926 | 0 | 110 | 0.0 | 0.0 | 0.00 | 0.02 | 0.02 | 1004.1 | |
| 20260506231423 | 0 | 28 | 0.0 | 0.0 | 0.00 | 0.02 | 0.02 | 1004.4 | |
| 20260506230920 | 0 | 149 | 1.0 | 1.0 | 0.07 | 0.02 | 0.02 | 1004.2 | |
| 20260506230417 | 0 | 49 | 0.0 | 0.0 | 0.07 | 0.02 | 0.02 | 1004.4 | |
| 20260506225914 | 0 | 87 | 1.0 | 2.0 | 0.00 | 0.01 | 0.01 | 1004.3 | |
| 20260506225411 | 0 | 23 | 0.0 | 0.0 | 0.00 | 0.01 | 0.01 | 1004.3 | |
| 20260506224908 | 0 | 241 | 0.0 | 1.0 | 0.00 | 0.01 | 0.01 | 1004.3 | |
| 20260506224405 | 0 | 76 | 0.0 | 0.0 | 0.00 | 0.01 | 0.01 | 1004.4 | |
| 20260506223901 | 0 | 17 | 0.0 | 1.0 | 0.00 | 0.01 | 0.01 | 1004.6 | |
| 20260506223356 | 0 | 40 | 0.0 | 0.0 | 0.05 | 0.01 | 0.01 | 1004.5 | |
| 20260506222854 | 0 | 127 | 0.0 | 1.0 | 0.05 | 0.01 | 0.01 | 1004.7 | |
| 20260506222350 | 0 | 233 | 3.0 | 5.0 | 0.00 | 0.00 | 0.00 | 1004.4 | |
| 20260506221848 | 0 | 176 | 0.0 | 0.0 | 0.00 | 0.00 | 0.00 | 1004.6 | |
| 20260506221345 | 0 | 184 | 0.0 | 0.0 | 0.00 | 0.00 | 0.00 | 1004.5 | |
| 20260506220842 | 0 | 115 | 0.0 | 0.0 | 0.00 | 0.00 | 0.00 | 1004.8 | |
| 20260506220338 | 0 | 69 | 0.0 | 0.0 | 0.00 | 0.00 | 0.00 | 1004.8 | |
| 20260506215835 | 0 | 173 | 3.0 | 6.0 | 0.00 | 0.00 | 0.00 | 1004.9 | |
| 20260506215330 | 0 | 173 | 3.0 | 6.0 | 0.00 | 0.00 | 0.00 | 1004.9 | |
| 20260506214826 | 0 | 104 | 0.0 | 0.0 | 0.00 | 0.07 | 0.07 | 1004.7 | |
| 20260506214323 | 0 | 81 | 1.0 | 1.0 | 0.07 | 0.07 | 0.07 | 1005.0 | |
| 20260506213822 | 0 | 107 | 0.0 | 0.0 | 0.07 | 0.07 | 0.07 | 1004.9 | |
| 20260506213319 | 0 | 178 | 2.0 | 2.0 | 0.00 | 0.06 | 0.06 | 1004.7 | |
| 20260506212816 | 0 | 13 | 2.0 | 3.0 | 0.00 | 0.06 | 0.06 | 1005.1 | |
| 20260506212311 | 0 | 30 | 3.0 | 3.0 | 0.00 | 0.06 | 0.06 | 1004.8 | |
| 20260506211807 | 0 | 250 | 2.0 | 3.0 | 0.00 | 0.06 | 0.06 | 1004.9 | |
| 20260506211303 | 0 | 71 | 0.0 | 0.0 | 0.00 | 0.06 | 0.06 | 1004.9 | |
| 20260506210801 | 0 | 65 | 0.0 | 0.0 | 0.00 | 0.06 | 0.06 | 1005.1 | |
| 20260506210257 | 0 | 63 | 1.0 | 2.0 | 0.00 | 0.06 | 0.06 | 1005.1 | |
| 20260506205754 | 0 | 49 | 0.0 | 0.0 | 0.00 | 0.06 | 0.06 | 1005.1 | |
| 20260506205249 | 0 | 136 | 1.0 | 1.0 | 0.00 | 0.06 | 0.06 | 1005.3 | |
| 20260506204746 | 0 | 135 | 2.0 | 3.0 | 0.00 | 0.06 | 0.06 | 1005.4 | |
| 20260506204245 | 0 | 133 | 1.0 | 1.0 | 0.00 | 0.06 | 0.06 | 1005.1 | |
| 20260506203742 | 0 | 79 | 0.0 | 0.0 | 0.00 | 0.06 | 0.06 | 1005.3 | |
| 20260506203239 | 0 | 55 | 0.0 | 0.0 | 0.00 | 0.06 | 0.06 | 1005.3 | |
| 20260506202736 | 0 | 13 | 2.0 | 2.0 | 0.00 | 0.06 | 0.06 | 1005.3 | |
| 20260506202233 | 0 | 150 | 0.0 | 1.0 | 0.05 | 0.06 | 0.06 | 1005.4 | |
| 20260506201730 | 0 | 61 | 0.0 | 0.0 | 0.05 | 0.06 | 0.06 | 1005.2 | |
| 20260506201226 | 0 | 186 | 3.0 | 5.0 | 0.00 | 0.05 | 0.05 | 1005.2 | |
| 20260506200723 | 0 | 357 | 1.0 | 1.0 | 0.00 | 0.05 | 0.05 | 1005.2 | |
| 20260506200220 | 0 | 58 | 1.0 | 1.0 | 0.00 | 0.05 | 0.05 | 1005.3 | |
| 20260506195716 | 0 | 84 | 0.0 | 0.0 | 0.00 | 0.05 | 0.05 | 1005.3 | |
| 20260506195212 | 0 | 73 | 0.0 | 0.0 | 0.00 | 0.05 | 0.05 | 1005.2 | |
| 20260506194705 | 0 | 66 | 1.0 | 1.0 | 0.00 | 0.05 | 0.05 | 1005.1 | |
| 20260506194201 | 0 | 178 | 1.0 | 1.0 | 0.07 | 0.05 | 0.05 | 1005.1 | |
| 20260506193658 | 0 | 204 | 1.0 | 2.0 | 0.12 | 0.05 | 0.05 | 1005.1 | |
| 20260506193155 | 0 | 145 | 2.0 | 2.0 | 0.05 | 0.04 | 0.04 | 1005.2 | |
| 20260506192652 | 0 | 82 | 1.0 | 2.0 | 0.07 | 0.03 | 0.03 | 1005.5 | |
| 20260506192148 | 0 | 48 | 0.0 | 1.0 | 0.07 | 0.03 | 0.03 | 1005.6 | |
| 20260506191646 | 0 | 154 | 1.0 | 1.0 | 0.05 | 0.02 | 0.02 | 1005.5 | |
| 20260506191141 | 0 | 95 | 1.0 | 1.0 | 0.05 | 0.02 | 0.02 | 1005.4 | |
| 20260506190639 | 0 | 105 | 1.0 | 1.0 | 0.07 | 0.01 | 0.01 | 1005.3 | |
| 20260506190135 | 0 | 52 | 0.0 | 1.0 | 0.07 | 0.01 | 0.01 | 1005.4 | |
| 20260506185632 | 0 | 119 | 1.0 | 1.0 | 0.00 | 0.00 | 0.00 | 1005.4 | |
| 20260506185128 | 0 | 83 | 1.0 | 2.0 | 0.00 | 0.00 | 0.00 | 1005.3 | |
| 20260506184626 | 0 | 82 | 2.0 | 3.0 | 0.00 | 0.00 | 0.00 | 1005.6 | |
| 20260506184123 | 0 | 85 | 0.0 | 0.0 | 0.00 | 0.00 | 0.00 | 1005.7 | |
| 20260506183620 | 0 | 54 | 0.0 | 0.0 | 0.00 | 0.00 | 0.00 | 1005.7 | |
| 20260506183116 | 0 | 171 | 2.0 | 3.0 | 0.00 | 0.00 | 0.00 | 1005.6 | |
| 20260506182614 | 0 | 134 | 2.0 | 2.0 | 0.00 | 0.00 | 0.00 | 1005.8 | |
| 20260506182110 | 0 | 17 | 2.0 | 2.0 | 0.00 | 0.00 | 0.00 | 1005.8 | |
| 20260506181608 | 0 | 134 | 1.0 | 1.0 | 0.00 | 0.00 | 0.00 | 1005.5 | |
| 20260506181105 | 0 | 208 | 2.0 | 5.0 | 0.00 | 0.00 | 0.00 | 1005.6 | |
| 20260506180602 | 0 | 147 | 3.0 | 5.0 | 0.00 | 0.00 | 0.00 | 1005.9 | |
| 20260506180059 | 0 | 75 | 1.0 | 1.0 | 0.00 | 0.00 | 0.00 | 1005.6 | |
| 20260506175554 | 0 | 220 | 4.0 | 6.0 | 0.00 | 0.00 | 0.00 | 1005.6 | |
| 20260506175051 | 0 | 194 | 0.0 | 1.0 | 0.00 | 0.00 | 0.00 | 1005.9 | |
| 20260506174550 | 0 | 97 | 1.0 | 1.0 | 0.00 | 0.00 | 0.00 | 1005.6 | |
| 20260506174046 | 0 | 205 | 3.0 | 5.0 | 0.00 | 0.00 | 0.00 | 1005.8 | |
| 20260506173544 | 0 | 200 | 5.0 | 8.0 | 0.00 | 0.00 | 0.00 | 1005.8 | |
| 20260506173040 | 0 | 36 | 1.0 | 2.0 | 0.00 | 0.00 | 0.00 | 1005.9 | |
| 20260506172538 | 0 | 68 | 2.0 | 3.0 | 0.00 | 0.00 | 0.00 | 1005.6 | |
| 20260506172034 | 0 | 71 | 2.0 | 2.0 | 0.00 | 0.00 | 0.00 | 1005.8 | |
| 20260506171531 | 0 | 349 | 4.0 | 6.0 | 0.00 | 0.00 | 0.00 | 1006.0 | |
| 20260506171029 | 0 | 145 | 2.0 | 2.0 | 0.00 | 0.00 | 0.00 | 1005.9 | |
| 20260506170526 | 0 | 12 | 3.0 | 3.0 | 0.00 | 0.00 | 0.00 | 1005.8 | |
| 20260506170023 | 0 | 180 | 2.0 | 3.0 | 0.00 | 0.00 | 0.00 | 1005.8 | |
| 20260506165522 | 0 | 193 | 2.0 | 2.0 | 0.00 | 0.00 | 0.00 | 1005.8 | |
| 20260506165018 | 0 | 64 | 0.0 | 1.0 | 0.00 | 0.00 | 0.00 | 1005.9 | |
| 20260506164514 | 0 | 106 | 2.0 | 2.0 | 0.00 | 0.00 | 0.00 | 1006.0 | |
| 20260506164012 | 0 | 90 | 6.0 | 9.0 | 0.00 | 0.00 | 0.00 | 1006.3 | |
| 20260506163508 | 0 | 192 | 1.0 | 2.0 | 0.00 | 0.00 | 0.00 | 1006.2 | |
| 20260506163004 | 0 | 140 | 1.0 | 2.0 | 0.00 | 0.00 | 0.00 | 1006.2 | |
| 20260506162500 | 0 | 31 | 2.0 | 3.0 | 0.00 | 0.00 | 0.00 | 1006.2 | |
| 20260506161957 | 0 | 118 | 3.0 | 6.0 | 0.00 | 0.00 | 0.00 | 1006.3 | |
| 20260506161455 | 0 | 165 | 2.0 | 2.0 | 0.00 | 0.00 | 0.00 | 1006.5 | |
| 20260506160952 | 0 | 180 | 4.0 | 7.0 | 0.00 | 0.00 | 0.00 | 1006.5 | |
| 20260506160449 | 0 | 175 | 2.0 | 3.0 | 0.00 | 0.00 | 0.00 | 1006.8 | |
| 20260506155946 | 0 | 223 | 2.0 | 2.0 | 0.00 | 0.00 | 0.00 | 1006.8 | |
| 20260506155444 | 0 | 182 | 4.0 | 7.0 | 0.00 | 0.00 | 0.00 | 1007.0 | |
| 20260506153616 | 0 | 344 | 4.0 | 7.0 | 0.00 | 0.00 | 0.00 | 1007.3 | |
| 20260506153114 | 0 | 172 | 1.0 | 1.0 | 0.00 | 0.00 | 0.00 | 1007.0 | |
| 20260506152611 | 0 | 202 | 2.0 | 3.0 | 0.00 | 0.00 | 0.00 | 1007.3 | |
| 20260506152109 | 0 | 60 | 2.0 | 2.0 | 0.00 | 0.00 | 0.00 | 1007.3 | |
| 20260506151607 | 0 | 348 | 2.0 | 3.0 | 0.00 | 0.00 | 0.00 | 1007.2 | |
| 20260506151103 | 0 | 149 | 1.0 | 2.0 | 0.00 | 0.00 | 0.00 | 1007.3 | |
| 20260506150600 | 0 | 246 | 6.0 | 8.0 | 0.00 | 0.00 | 0.00 | 1007.5 |